User: anonymous   Login
Location: Godiavel Galaoual
(15.2485°N, 12.6604°W)
Time: 14:15:59
(UTC+00:00)
Language:

Courier 1B Rocket - Orbit

View from above orbital plane
View from above orbital plane
View from above satellite
View from above satellite

Ground track
Ground track

The orbit data is extracted from the following two-line orbital elements,

1 00059U 60013B   21172.53612001  .00000089  00000-0  27721-6 0  9997
2 00059  28.2475 122.2949 0189279 144.0022 217.3433 13.52986360996338
Epoch (UTC): 21 June 2021 12:52:00
Eccentricity: 0.0189279
inclination: 28.2475°
perigee height: 920 km
apogee height: 1202 km
right ascension of ascending node: 122.2949°
argument of perigee: 144.0022°
revolutions per day: 13.52986360
mean anomaly at epoch: 217.3433°
orbit number at epoch: 99633

The dashed part of the orbit path shows where the satellite is in the earth's shadow,  

DLR